Aeroporto :
LOGIN :

Iscrizione | Disclaimer

   EN    FR    IT 

 










Sommario :    VFR   VFR Marginale   IFR   IFR Intensivo   IFR Molto Intensivo
Visibilità : 
Base nubi : 
>= 8 km
>= 3000ft
5 / 8 km
1000 / 3000 ft
1500m / 5 km
500 / 1000 ft
800 / 1500m
200 / 500 ft
< 800m
< 200 ft
Simboli :   Temporali  Nebbia  Neve Forte  Precipitazioni Forti  Vento > 20 kt
SIGMETs :   Varie  Temporali  Ghiacco  Turbolenza  Onda orograficha  Ceneri Vulcaniche






- Altitudine del aeroporto : 479 ft
- Codice IATA : DOL


LFRG - Deauville

ULTIMO METAR :
  • 090400Z AUTO 00000KT 5000 BR NSC 09/08 Q1022

METARs OBSOLETI :
  • 090330Z AUTO 08001KT 4900 BR NSC 08/08 Q1022
  • 090300Z AUTO 00000KT 3300 BR NSC 08/07 Q1022
  • 090230Z AUTO 22003KT 3500 BR NSC 08/07 Q1022
  • 090200Z AUTO 20001KT 3100 BR NSC 09/08 Q1022
  • 090130Z AUTO 28003KT 3000 BR NSC 09/08 Q1022

Previsioni scadute.
ATIS : +33 2 31 65 65 36



MetMap, La meteo Aeronautica in un colpo d'occhio ! - Copyright ORBIFLY Dicembre 2007 - Disclaimer

ORBIFLY MET'MAP TEAM :

Programmazione e sviluppo : Alexandra Zaïnal
Concezione : Baudouin d'Aumeries
Aiuto per la programmazione : Marc-Olivier Méhu
Supporto tecnico e logistico : Manuel Goepfert
Aiuto per la traduzione : Arnaldo La Scala

Contatto : metmap@orbifly.com




FONTI E CREDITI :

   NOAA